Oakes, ND

12:40 PM CST on November 21, 2019 (GMT -0600)
Oakes

Weather History for K2D5 - September, 2019

Change the Weather History Date:

Tuesday, September 10, 2019

  Actual Average (KP67) Record (KP67)
Temperature  
Mean Temperature 61 °F -  
Max Temperature 69 °F 74 °F 80 °F (1997)
Min Temperature 53 °F 49 °F 43 °F (1997)
Degree Days  
Heating Degree Days 4    
Growing Degree Days 11 (Base 50)    
Moisture  
Dew Point 59 °F    
Average Humidity 91    
Maximum Humidity 100    
Minimum Humidity 68    
Precipitation  
Precipitation 0.00 in - - ()
Sea Level Pressure  
Sea Level Pressure 29.96 in    
Wind  
Wind Speed 8 mph (NW)    
Max Wind Speed 15 mph    
Max Gust Speed 16 mph    
Visibility 9 miles    
Events      
Averages and records for this station are not official NWS values.
T = Trace of Precipitation, MM = Missing Value Source: NWS Daily Summary

Daily Weather History Graph

Daily Weather History Graph

Search for Another Location

Airport or City:

Astronomy

Sep. 10, 2019 Rise Set
Actual Time 7:03 AM CDT 7:53 PM CDT
Civil Twilight 6:33 AM CDT 8:24 PM CDT
Nautical Twilight 5:57 AM CDT 9:00 PM CDT
Astronomical Twilight 5:19 AM CDT 9:38 PM CDT
Moon 6:44 PM CDT (9/10) 3:16 AM CDT (9/10)
Length of Visible Light 13h 50m
Length of Day
12h 49m
Waxing Gibbous, 89% of the Moon is Illuminated
Sep 10
Waxing Gibbous
Sep 13
Full
Sep 21
Last Quarter
Sep 28
New
Oct 5
First Quarter

Hourly Weather History & Observations

Time (CDT) Temp. Dew Point Humidity Pressure Visibility Wind Dir Wind Speed Gust Speed Precip Events Conditions
12:15 AM 59.0 °F 59.0 °F 100% 29.77 in 7.0 mi WSW 8.1 mph - N/A   Scattered Clouds
12:35 AM 60.8 °F 60.8 °F 100% 29.78 in 10.0 mi West 9.2 mph - N/A   Mostly Cloudy
12:55 AM 59.0 °F 59.0 °F 100% 29.79 in 10.0 mi West 6.9 mph - N/A   Partly Cloudy
1:15 AM 59.0 °F 59.0 °F 100% 29.79 in 10.0 mi West 10.4 mph - N/A   Scattered Clouds
1:35 AM 59.0 °F 59.0 °F 100% 29.80 in 10.0 mi West 12.7 mph - N/A   Overcast
1:55 AM 59.0 °F 59.0 °F 100% 29.80 in 10.0 mi WNW 11.5 mph - N/A   Overcast
2:15 AM 59.0 °F 59.0 °F 100% 29.81 in 9.0 mi WNW 6.9 mph 12.7 mph N/A   Overcast
2:35 AM 57.2 °F 57.2 °F 100% 29.81 in 9.0 mi West 5.8 mph - N/A   Scattered Clouds
2:55 AM 57.2 °F 57.2 °F 100% 29.82 in 9.0 mi West 6.9 mph - N/A   Partly Cloudy
3:15 AM 55.4 °F 55.4 °F 100% 29.83 in 9.0 mi WSW 4.6 mph - N/A   Clear
3:55 AM 57.2 °F 57.2 °F 100% 29.84 in 9.0 mi West 9.2 mph - N/A   Clear
4:15 AM 55.4 °F 55.4 °F 100% 29.85 in 8.0 mi West 10.4 mph - N/A   Clear
4:35 AM 55.4 °F 55.4 °F 100% 29.85 in 6.0 mi WNW 9.2 mph - N/A   Clear
4:55 AM 55.4 °F 55.4 °F 100% 29.86 in 5.0 mi WNW 8.1 mph - N/A   Clear
5:15 AM 53.6 °F 53.6 °F 100% 29.87 in 5.0 mi West 8.1 mph - N/A   Clear
5:35 AM 53.6 °F 53.6 °F 100% 29.87 in 5.0 mi WNW 8.1 mph - N/A   Clear
5:55 AM 53.6 °F 53.6 °F 100% 29.88 in 5.0 mi West 9.2 mph - N/A   Partly Cloudy
6:15 AM 53.6 °F 53.6 °F 100% 29.88 in 5.0 mi WNW 9.2 mph - N/A   Partly Cloudy
6:35 AM 53.6 °F 53.6 °F 100% 29.88 in 5.0 mi WNW 9.2 mph - N/A   Clear
6:55 AM 53.6 °F 53.6 °F 100% 29.89 in 6.0 mi West 6.9 mph - N/A   Clear
7:35 AM 53.6 °F 53.6 °F 100% 29.92 in 8.0 mi West 6.9 mph - N/A   Clear
7:55 AM 55.4 °F 55.4 °F 100% 29.93 in 9.0 mi WSW 4.6 mph - N/A   Clear
8:15 AM 57.2 °F 57.2 °F 100% 29.93 in 9.0 mi WNW 6.9 mph - N/A   Clear
8:35 AM 57.2 °F 57.2 °F 100% 29.93 in 9.0 mi WNW 10.4 mph - N/A   Clear
8:55 AM 59.0 °F 59.0 °F 100% 29.94 in 8.0 mi West 9.2 mph - N/A   Clear
9:15 AM 60.8 °F 60.8 °F 100% 29.95 in 9.0 mi WNW 9.2 mph - N/A   Clear
9:35 AM 60.8 °F 60.8 °F 100% 29.95 in 8.0 mi WNW 13.8 mph - N/A   Partly Cloudy
9:55 AM 62.6 °F 62.6 °F 100% 29.96 in 9.0 mi WNW 10.4 mph - N/A   Clear
10:15 AM 62.6 °F 62.6 °F 100% 29.97 in 9.0 mi WNW 9.2 mph - N/A   Scattered Clouds
10:35 AM 64.4 °F 60.8 °F 88% 29.97 in 9.0 mi WNW 8.1 mph - N/A   Mostly Cloudy
10:55 AM 64.4 °F 60.8 °F 88% 29.98 in 10.0 mi WNW 6.9 mph - N/A   Mostly Cloudy
11:15 AM 64.4 °F 60.8 °F 88% 29.98 in 10.0 mi WNW 8.1 mph - N/A   Mostly Cloudy
11:35 AM 66.2 °F 60.8 °F 83% 29.99 in 10.0 mi WNW 6.9 mph - N/A   Mostly Cloudy
11:55 AM 66.2 °F 60.8 °F 83% 30.00 in 10.0 mi WNW 8.1 mph - N/A   Scattered Clouds
12:15 PM 68.0 °F 60.8 °F 78% 30.00 in 9.0 mi WNW 9.2 mph 16.1 mph N/A   Scattered Clouds
12:35 PM 68.0 °F 60.8 °F 78% 30.01 in 9.0 mi NW 9.2 mph - N/A   Partly Cloudy
12:55 PM 68.0 °F 59.0 °F 73% 30.01 in 10.0 mi WNW 10.4 mph - N/A   Clear
1:15 PM 68.0 °F 60.8 °F 78% 30.01 in 10.0 mi WNW 8.1 mph 13.8 mph N/A   Clear
1:35 PM 68.0 °F 59.0 °F 73% 30.01 in 10.0 mi WNW 10.4 mph - N/A   Clear
1:55 PM 69.8 °F 59.0 °F 68% 30.01 in 10.0 mi WNW 10.4 mph - N/A   Clear
2:15 PM 69.8 °F 59.0 °F 68% 30.01 in 10.0 mi NW 9.2 mph - N/A   Clear
2:35 PM 69.8 °F 59.0 °F 68% 30.02 in 10.0 mi West 5.8 mph - N/A   Clear
2:55 PM 69.8 °F 59.0 °F 68% 30.01 in 10.0 mi North 6.9 mph - N/A   Partly Cloudy
3:15 PM 69.8 °F 59.0 °F 68% 30.01 in 10.0 mi NNW 5.8 mph - N/A   Partly Cloudy
3:35 PM 69.8 °F 59.0 °F 68% 30.01 in 9.0 mi Variable 4.6 mph - N/A   Clear
3:55 PM 69.8 °F 59.0 °F 68% 30.01 in 10.0 mi North 4.6 mph - N/A   Clear
4:15 PM 69.8 °F 59.0 °F 68% 30.01 in 10.0 mi NE 4.6 mph - N/A   Clear
4:35 PM 69.8 °F 59.0 °F 68% 30.01 in 10.0 mi Calm Calm - N/A   Clear
4:55 PM 69.8 °F 60.8 °F 73% 30.02 in 10.0 mi ENE 3.5 mph - N/A   Partly Cloudy
5:15 PM 69.8 °F 60.8 °F 73% 30.01 in 10.0 mi NE 5.8 mph - N/A   Partly Cloudy
5:35 PM 69.8 °F 59.0 °F 68% 30.02 in 10.0 mi ENE 4.6 mph - N/A   Clear
5:55 PM 68.0 °F 60.8 °F 78% 30.03 in 10.0 mi NE 4.6 mph - N/A   Clear
6:15 PM 68.0 °F 60.8 °F 78% 30.03 in 10.0 mi Calm Calm - N/A   Clear
6:35 PM 68.0 °F 62.6 °F 83% 30.03 in 10.0 mi NE 3.5 mph - N/A   Clear
6:55 PM 66.2 °F 62.6 °F 88% 30.01 in 10.0 mi NE 6.9 mph - N/A   Clear
7:15 PM 64.4 °F 62.6 °F 94% 30.01 in 10.0 mi ENE 5.8 mph - N/A   Clear
7:35 PM 64.4 °F 64.4 °F 100% 30.04 in 10.0 mi East 6.9 mph - N/A   Clear
7:55 PM 62.6 °F 62.6 °F 100% 30.04 in 10.0 mi East 9.2 mph - N/A   Clear
8:15 PM 62.6 °F 62.6 °F 100% 30.03 in 10.0 mi ENE 6.9 mph - N/A   Partly Cloudy
8:35 PM 62.6 °F 62.6 °F 100% 30.02 in 10.0 mi ENE 8.1 mph - N/A   Scattered Clouds
8:55 PM 62.6 °F 62.6 °F 100% 30.04 in 10.0 mi East 8.1 mph - N/A   Mostly Cloudy
9:15 PM 60.8 °F 60.8 °F 100% 30.04 in 10.0 mi ENE 9.2 mph - N/A   Overcast
9:35 PM 60.8 °F 60.8 °F 100% 30.06 in 10.0 mi ENE 10.4 mph - N/A   Overcast
9:55 PM 60.8 °F 60.8 °F 100% 30.07 in 10.0 mi East 9.2 mph - N/A   Overcast
10:15 PM 60.8 °F 60.8 °F 100% 30.06 in 10.0 mi East 13.8 mph - N/A   Overcast
10:35 PM 60.8 °F 60.8 °F 100% 30.06 in 10.0 mi East 11.5 mph - N/A   Overcast
10:55 PM 59.0 °F 59.0 °F 100% 30.04 in 10.0 mi ENE 13.8 mph - N/A   Mostly Cloudy
11:15 PM 59.0 °F 59.0 °F 100% 30.05 in 10.0 mi ENE 15.0 mph - N/A   Mostly Cloudy
11:35 PM 57.2 °F 57.2 °F 100% 30.04 in 10.0 mi ENE 13.8 mph - N/A   Mostly Cloudy
11:55 PM 57.2 °F 57.2 °F 100% 30.08 in 10.0 mi East 13.8 mph - N/A   Mostly Cloudy